This is the latest recevied weather packets stored in our database for station/object VA3WWD-2. If no packets are shown the sender has not sent any weather packets the latest 10 day(s).
| Time | Temp. | Humidity | Pressure | Rain* | Wind** | Luminosity | Snow |
|---|---|---|---|---|---|---|---|
| 1777629161 | -0.56° C | 75% | - | 0 mm | 0 m/s | - | - |
| 1777628860 | -1.11° C | 75% | - | 0 mm | 0 m/s | - | - |
| 1777628264 | -0.56° C | 72% | - | 0 mm | 0 m/s | - | - |
| 1777627665 | -0.56° C | 73% | - | 0 mm | 0 m/s | - | - |
| 1777627367 | -1.11° C | 73% | - | 0 mm | 0 m/s | - | - |
| 1777627066 | -0.56° C | 73% | - | 0 mm | 0 m/s | - | - |
| 1777626769 | -1.11° C | 75% | - | 0 mm | 0 m/s | - | - |
| 1777626471 | -0.56° C | 75% | - | 0 mm | 0 m/s | - | - |
| 1777626170 | -1.11° C | 75% | - | 0 mm | 0 m/s | - | - |
| 1777625872 | -1.11° C | 73% | - | 0 mm | 0 m/s | - | - |
| 1777625574 | -1.11° C | 75% | - | 0 mm | 0 m/s | - | - |
| 1777625273 | -0.56° C | 74% | - | 0 mm | 0 m/s | - | - |
| 1777624677 | -1.11° C | 75% | - | 0 mm | 0 m/s | - | - |
| 1777624376 | -1.67° C | 75% | - | 0 mm | 0 m/s | - | - |
| 1777624078 | -1.67° C | 73% | - | 0 mm | 0 m/s | - | - |
| 1777623780 | -1.67° C | 71% | - | 0 mm | 0 m/s | - | - |
| 1777623479 | -1.11° C | 70% | - | 0 mm | 0 m/s | - | - |
| 1777623181 | -0.56° C | 71% | - | 0 mm | 0 m/s | - | - |
| 1777622883 | -1.67° C | 71% | - | 0 mm | 0 m/s | - | - |
| 1777622582 | -0.56° C | 72% | - | 0 mm | 0 m/s | - | - |
| 1777622284 | -0.56° C | 72% | - | 0 mm | 0 m/s | - | - |
| 1777621986 | -0.56° C | 70% | - | 0 mm | 0 m/s | - | - |
| 1777620788 | 0° C | 69% | - | 0 mm | 0 m/s | - | - |
| 1777619891 | 0° C | 69% | - | 0 mm | 0 m/s | - | - |
| 1777619593 | -0.56° C | 69% | - | 0 mm | 0 m/s | - | - |
* Rain latest hour (hover to see other rain measurements)
** Current wind speed in m/s (hover to see current wind gust speed)